Terminal Aerodrome Forecast
Issued by NWS

Home | Current Version | Previous Version | Text Only | Print | Product List | Glossary On
Versions: 1 2 3 4 5 6 7 8 9 10 11 12 13 14 15 16 17
107
FTUS42 KFFC 232321
TAFPDK
TAF
KPDK 232321Z 2400/2424 27009KT P6SM FEW040
     FM240300 27004KT P6SM SKC
     FM241400 28008KT P6SM SKC
     FM241600 29010G20KT P6SM FEW040=

USA.gov is the U.S. government's official web portal to all federal, state and local government web resources and services.